Location: Betz
(49.1556°N, 2.9558°E)
Time: 06:03:46
(UTC+00:00)

Cosmos 1821 Rocket - Pass Details

Date: 18 September 2019
Orbit: 944 x 1005 km, 82.9° (Epoch: 21 October)

Event Time Altitude Azimuth Distance (km) Brightness Sun altitude
Rises 20:40:20 0° 351° (N) 3,670 7.7 -25.8°
Reaches altitude 10° 20:42:53 10° 354° (N) 2,711 6.9 -26.1°
Maximum altitude 20:49:04 72° 79° (ENE) 1,003 3.8 -26.9°
Enters shadow 20:49:25 70° 105° (ESE) 1,011 3.8 -27.0°
